Flag for U.S.A. Weather past 2 weeks in Salt Lake City, Utah, U.S.A.

Now
27 °F

Mostly cloudy.


Feels Like: 20 °F
Forecast: 16 / 31 °F
Wind: 7 mph from South

Location: Salt Lake City International Airport

Current Time: Dec 29, 2014 at 3:21:45 AM

Latest Report: Dec 29, 2014 at 2:53 AM


Visibility: 7 mi

Pressure: 30.07 "Hg

Humidity: 92%

Dew point: 25 °F

Location of Salt Lake CityLocation

Historic Weather in Salt Lake City — Graph

°F

Salt Lake City temperature yesterday

Maximum temperature yesterday: 32 °F (at 11:53 AM)
Minimum temperature yesterday: 25 °F (at 12:53 AM)
Average temperature yesterday: 28 °F

Past Weeks' High & Low Weather Summary

 TemperatureHumidityPressure
High47 °F (Dec 24, 10:53 PM)97% (Dec 22, 5:53 AM)30.48 "Hg (Dec 22, 5:53 AM)
Low17 °F (Dec 27, 6:53 AM)39% (Dec 24, 1:53 PM)29.36 "Hg (Dec 24, 10:53 PM)
Average34 °F75%30.08 "Hg
* Reported Dec 14 1:01 AM — Dec 29 1:53 AM, Salt Lake City, Weather by CustomWeather, © 2014

Note: Actual official high and low records may vary slightly from our data, if they occured in-between our weather recording intervals... More about our weather records

Advertising

Salt Lake City weather history for previous 24 hours

 ConditionsComfort  
Time TempWeatherWind HumidityBarometerVisibility
1:53 AM
Dec 29
27 °FLight snow. Ice fog.5 mph92%30.06 "Hg3 mi
1:01 AM28 °FMostly cloudy.5 mph89%30.01 "Hg9 mi
11:53 PM
Dec 28
28 °FOvercast.7 mph89%30.07 "Hg10 mi
10:53 PM28 °FOvercast.5 mph89%30.08 "Hg10 mi
9:53 PM27 °FOvercast.6 mph92%30.11 "Hg8 mi
8:53 PM28 °FLight snow. Overcast.7 mph93%30.10 "Hg8 mi
7:57 PM28 °FLight snow. Ice fog.6 mph93%30.05 "Hg4 mi
6:53 PM28 °FLight snow. Ice fog.5 mph93%30.12 "Hg2 mi
5:53 PM29 °FLight snow. Ice fog.3 mph89%30.11 "Hg5 mi
4:53 PM29 °FLight snow. Ice fog.7 mph89%30.09 "Hg5 mi
3:53 PM30 °FLight snow. Ice fog.8 mph85%30.11 "Hg5 mi
2:53 PM29 °FOvercast.8 mph89%30.10 "Hg10 mi
1:53 PM29 °FLight snow. Ice fog.10 mph93%30.12 "Hg4 mi
1:01 PM28 °FLight snow. Ice fog.6 mph89%30.06 "Hg2 mi
11:53 AM32 °FLight snow. Mostly cloudy.5 mph59%30.12 "Hg8 mi
10:53 AM31 °FOvercast.9 mph59%30.12 "Hg10 mi
9:53 AM29 °FLight snow. Mostly cloudy.14 mph64%30.12 "Hg9 mi
8:53 AM28 °FLight snow. Overcast.15 mph64%30.12 "Hg10 mi
7:53 AM27 °FOvercast.8 mph66%30.15 "Hg10 mi
6:53 AM28 °FLight snow. Mostly cloudy.16 mph61%30.15 "Hg9 mi
5:53 AM27 °FOvercast.10 mph61%30.17 "Hg10 mi
4:53 AM26 °FOvercast.12 mph66%30.17 "Hg10 mi
3:53 AM26 °FMostly cloudy.14 mph63%30.20 "Hg10 mi
Weather by CustomWeather, © 2014

See weather overviewHow to use our weather pages